This is the latest recevied weather packets stored in our database for station/object KI5PFS. If no packets are shown the sender has not sent any weather packets the latest 10 day(s).
| Time | Temp. | Humidity | Pressure | Rain* | Wind** | Luminosity | Snow |
|---|---|---|---|---|---|---|---|
| 1777654803 | 17.22° C | 61% | 1014 hPa | 0 mm | - | - | - |
| 1777654204 | 16.11° C | 62% | 1014.1 hPa | 0 mm | - | - | - |
| 1777653603 | 16.11° C | 64% | 1014.1 hPa | 0 mm | - | - | - |
| 1777653004 | 16.11° C | 63% | 1014.1 hPa | 0 mm | - | - | - |
| 1777652403 | 16.11° C | 65% | 1014.3 hPa | 0 mm | - | - | - |
| 1777651804 | 15° C | 66% | 1014.3 hPa | 0 mm | - | - | - |
| 1777651203 | 15° C | 67% | 1014.7 hPa | 0 mm | - | - | - |
| 1777650603 | 15° C | 67% | 1014.4 hPa | 0 mm | - | - | - |
| 1777650004 | 13.89° C | 64% | 1014.6 hPa | 0 mm | - | - | - |
| 1777649403 | 13.89° C | 63% | 1014.6 hPa | 0 mm | - | - | - |
| 1777648803 | 13.89° C | 61% | 1014 hPa | 0 mm | - | - | - |
| 1777648204 | 13.89° C | 61% | 1014.3 hPa | 0 mm | - | - | - |
| 1777647604 | 13.89° C | 65% | 1014.2 hPa | 0 mm | - | - | - |
| 1777647003 | 13.89° C | 66% | 1014.4 hPa | 0 mm | - | - | - |
| 1777646404 | 13.89° C | 69% | 1014.1 hPa | 0 mm | - | - | - |
| 1777645804 | 13.89° C | 69% | 1014.1 hPa | 0 mm | - | - | - |
| 1777645203 | 13.89° C | 69% | 1013.7 hPa | 0 mm | - | - | - |
| 1777644604 | 13.89° C | 69% | 1014 hPa | 0 mm | - | - | - |
| 1777644004 | 13.89° C | 72% | 1013.9 hPa | 0 mm | - | - | - |
| 1777643404 | 13.89° C | 72% | 1013.6 hPa | 0 mm | - | - | - |
| 1777642804 | 13.89° C | 73% | 1013.8 hPa | 0 mm | - | - | - |
| 1777642204 | 13.89° C | 78% | 1013.9 hPa | 0 mm | - | - | - |
| 1777641604 | 13.89° C | 78% | 1014.4 hPa | 0 mm | - | - | - |
| 1777641004 | 13.89° C | 74% | 1014.5 hPa | 0 mm | - | - | - |
| 1777640403 | 13.89° C | 77% | 1014.2 hPa | 0 mm | - | - | - |
* Rain latest hour (hover to see other rain measurements)
** Current wind speed in m/s (hover to see current wind gust speed)